Tracking 31027 objects as of 19-Jul-2025
HD Live streaming from Space Station
objects crossing your sky now

O3B FM20

Track O3B FM20 now!
10-day predictions
O3B FM20 is classified as:


NORAD ID: 44112
Int'l Code: 2019-020A
Perigee: 8,068.1 km
Apogee: 8,077.9 km
Inclination: 0.0 °
Period: 287.9 minutes
Semi major axis: 14444 km
RCS: Unknown
Launch date: April 4, 2019
Source: O3b Networks (O3B)
Launch site: FRENCH GUIANA (FRGUI)
Your satellite tracking list
Your tracking list is empty




NASA's NSSDC Master Catalog

Two Line Element Set (TLE):
1 44112U 19020A   25199.19480736 -.00000013  00000-0  00000-0 0  9993
2 44112   0.0483 355.8956 0003396 119.7533 244.3854  5.00115319114865
Source of the keplerian elements: AFSPC